Skip Page Navigation
NASA JPL Caltech
NASA Logo - Jet Propulsion Laboratory + View the NASA Portal
+ Near-Earth Object (NEO) Program
Search JPL
JPL Home Earth Solar System Stars & Galaxies Technology
JPL Solar System Dynamics
BODIES ORBITS EPHEMERIDES TOOLS PHYSICAL DATA DISCOVERY FAQ SITE MAP
JPL Small-Body Database Browser
Search: [ help ]  
398 Admete (1894 BN)
Classification: Main-belt Asteroid          SPK-ID: 2000398
Ephemeris | Orbit Diagram | Orbital Elements | Physical Parameters | Discovery Circumstances | Close-Approach Data ]

[ hide orbit diagram ]
Orbit Diagram
Note: Make sure you have Java enabled on your browser to see the applet. This applet is provided as a 3D orbit visualization tool. The applet was implemented using 2-body methods, and hence should not be used for determining accurate long-term trajectories (over several years or decades) or planetary encounter circumstances. For accurate long-term ephemerides, please instead use our Horizons system.
Orbit Viewer

Additional Notes: the orbits shown in the applet are color coded. The planets are white lines, and the asteroid/comet is a blue line. The bright white line indicates the portion of the orbit that is above the ecliptic plane, and the darker portion is below the ecliptic plane. Likewise for the asteroid/comet orbit, the light blue indicates the portion above the ecliptic plane, and the dark blue the portion below the ecliptic plane.

Orbit Viewer applet originally written and kindly provided by Osamu Ajiki (AstroArts), and further modified by Ron Baalke (JPL).


Orbital Elements at Epoch 2456400.5 (2013-Apr-18.0) TDB
Reference: JPL 1 (heliocentric ecliptic J2000)
 Element Value Uncertainty (1-sigma)   Units 
e .2243500237431618 5.8361e-08  
a 2.73756510901516 9.2851e-09 AU
q 2.123392311809158 1.5942e-07 AU
i 9.52871788148412 7.5911e-06 deg
node 279.9896510763202 4.4838e-05 deg
peri 158.93682988282 4.8324e-05 deg
M 53.31591886623163 1.7789e-05 deg
tp 2456155.481142727811
(2012-Aug-15.98114273)
8.1312e-05 JED
period 1654.417489067322
4.53
8.417e-06
2.304e-08
d
yr
n .2175992470938819 1.1071e-09 deg/d
Q 3.351737906221163 1.1368e-08 AU
  Orbit Determination Parameters
   # obs. used (total)      971  
   data-arc span      43206 days (118.29 yr)  
   first obs. used      1894-12-29  
   last obs. used      2013-04-15  
   planetary ephem.      DE405  
   SB-pert. ephem.      SB405-CPV-2  
   condition code      0  
   fit RMS      .53137  
   data source      ORB  
   producer      Otto Matic  
   solution date      2013-Apr-29 12:35:05  

Additional Information
 Earth MOID = 1.14146 AU 
 T_jup = 3.295 
[ show covariance matrix ]

Ephemeris | Orbit Diagram | Orbital Elements | Physical Parameters | Discovery Circumstances | Close-Approach Data ]

Physical Parameter Table
Parameter Symbol Value Units Sigma Reference Notes
absolute magnitude H 10.30 mag n/a IRAS-A-FPA-3-RDR-IMPS-V6.0 IRAS observations used: 8
diameter diameter 46.98 km 2.3 IRAS-A-FPA-3-RDR-IMPS-V6.0 IRAS observations used: 8
geometric albedo albedo 0.0607   0.006 IRAS-A-FPA-3-RDR-IMPS-V6.0 IRAS observations used: 8
SMASSII spectral type spec_B C   n/a EAR-A-5-DDR-TAXONOMY-V4.0 based on a high-resolution spectrum by Xu et al. (1995) or Bus and Binzel (2002)

398 Admete (1894 BN)          Discovered 1894-Dec-28 by Charlois, A. at Nice
Reference: DISCOVERY.DBLast Updated: 2003-08-29

[ show close-approach data ]
Alternate Designations
 1894 BN = 1951 LP = 1952 QC1 = A907 RE 
Ephemeris | Orbit Diagram | Orbital Elements | Physical Parameters | Discovery Circumstances | Close-Approach Data ]
ABOUT SSD CREDITS/AWARDS PRIVACY/COPYRIGHT GLOSSARY LINKS
FirstGov 2013-May-23 07:25 UT
(server date/time)  
NASA Home Page
Site Manager:   Donald K. Yeomans
Webmaster  Alan B. Chamberlin